Location: Cluny
(50.9333°N, 112.8167°W)
Time: 12:21:30
(UTC-06:00)

Amateur Radio Satellites - All Passes

Search period start: 23 September 2017 11:51
Search period end: 24 September 2017 11:51
Location: Cluny, 50.9333°N, 112.8167°W

Satellite Date Start Highest point End Downlink Frequencies (MHz)
Time Altitude Azimuth
TIGRISAT 23 Sep 12:01:05 12:03:28 14° 273° (W) 12:05:54 435.000
Oscar 19 23 Sep 12:06:10 12:08:38 14° 50° (NE) 12:11:06 437.125/150
O/OREOS (USA 219) 23 Sep 12:07:49 12:12:15 44° 55° (NE) 12:16:40 437.305
Max Valier Satellite 23 Sep 12:12:33 12:16:00 35° 291° (WNW) 12:19:26 145.860
DUCHIFAT 1 23 Sep 12:13:39 12:17:43 54° 70° (ENE) 12:21:50 145.980
POLYITAN 1 23 Sep 12:26:48 12:31:01 89° 75° (ENE) 12:35:19 437.675
EO-79 23 Sep 12:31:12 12:35:25 83° 254° (WSW) 12:39:41 145.935-145.965
LO-87 23 Sep 12:37:26 12:40:58 51° 101° (E) 12:44:29 145.935 - 145.965
DELFI C3 23 Sep 12:40:02 12:42:43 18° 299° (WNW) 12:45:23 145.870
M-CUBED/EXP-1 PRIME 23 Sep 12:42:08 12:46:20 76° 69° (ENE) 12:50:15 437.505
QB50P2 23 Sep 12:44:51 12:49:00 56° 259° (W) 12:53:12 145.880/145.840
BUGSAT 1 23 Sep 12:50:25 12:54:09 38° 67° (ENE) 12:57:57 437.445
ESTCUBE 1 23 Sep 12:58:14 13:02:41 56° 101° (E) 13:07:05 437.505/2401.250
AO-7 23 Sep 13:00:05 13:05:06 18° 33° (NNE) 13:10:06 .
AIST 2D 23 Sep 13:12:24 13:13:56 12° 272° (W) 13:15:27 435.315
YUBILEINY 23 Sep 13:14:53 13:23:29 69° 94° (E) 13:32:06 435.215
EO-88 23 Sep 13:15:25 13:16:55 12° 302° (WNW) 13:18:26 145.990 - 145.960
NANOSAT C BR1 23 Sep 13:21:10 13:24:53 30° 265° (W) 13:28:39 145.865
Gurwin Techsat 1B 23 Sep 13:25:24 13:30:12 36° 63° (ENE) 13:35:01 435.225
VELOX 1 23 Sep 13:28:42 13:32:19 24° 93° (E) 13:35:54 145.980
SPROUT 23 Sep 13:29:36 13:33:30 33° 96° (E) 13:37:23 437.525
RS-15 23 Sep 13:37:35 13:49:44 63° 36° (NE) 14:01:15 29.354- 29.394
Oscar 19 23 Sep 13:41:52 13:47:01 65° 70° (ENE) 13:52:11 437.125/150
O/OREOS (USA 219) 23 Sep 13:47:34 13:51:29 28° 255° (WSW) 13:55:24 437.305
DUCHIFAT 1 23 Sep 13:50:45 13:53:43 19° 269° (W) 13:56:43 145.980
NO-84 23 Sep 13:51:00 13:53:46 19° 136° (SE) 13:56:23 435.350 FM
50 SAT 23 Sep 14:05:35 14:07:49 17° 93° (E) 14:10:02 437.505
POLYITAN 1 23 Sep 14:05:59 14:07:27 12° 274° (W) 14:08:56 437.675
SO-50 23 Sep 14:10:18 14:12:34 14° 111° (ESE) 14:14:52 436.795
EO-79 23 Sep 14:11:12 14:11:53 10° 275° (W) 14:12:35 145.935-145.965
LO-87 23 Sep 14:11:44 14:14:02 16° 298° (WNW) 14:16:21 145.935 - 145.965
M-CUBED/EXP-1 PRIME 23 Sep 14:18:58 14:21:07 14° 263° (W) 14:23:13 437.505
BUGSAT 1 23 Sep 14:26:18 14:29:38 24° 266° (W) 14:33:00 437.445
UKube-1 23 Sep 14:31:58 14:35:10 20° 92° (E) 14:38:20 .
ESTCUBE 1 23 Sep 14:35:41 14:39:08 22° 300° (WNW) 14:42:34 437.505/2401.250
DX 1 23 Sep 14:38:00 14:41:56 33° 96° (E) 14:45:51 434.975-435.025
ITAMSAT 1 23 Sep 14:47:36 14:51:41 24° 58° (ENE) 14:55:47 435.822/435.867
AO-7 23 Sep 14:48:09 14:56:02 50° 57° (ENE) 15:03:55 .
VELOX 1 23 Sep 15:04:46 15:08:57 44° 292° (WNW) 15:13:07 145.980
Gurwin Techsat 1B 23 Sep 15:05:06 15:10:06 41° 262° (W) 15:15:09 435.225
SPROUT 23 Sep 15:05:33 15:09:22 32° 295° (WNW) 15:13:10 437.525
YUBILEINY 23 Sep 15:13:14 15:21:00 35° 298° (WNW) 15:28:49 435.215
Oscar 19 23 Sep 15:22:48 15:26:47 22° 269° (W) 15:30:48 437.125/150
NO-84 23 Sep 15:27:10 15:30:51 85° 151° (SSE) 15:34:13 435.350 FM
50 SAT 23 Sep 15:37:23 15:40:29 37° 290° (WNW) 15:43:33 437.505
SO-50 23 Sep 15:47:50 15:52:19 83° 130° (SE) 15:56:51 436.795
PCSat 23 Sep 15:48:32 15:53:47 52° 119° (ESE) 15:59:04 145.827
RS-15 23 Sep 15:50:41 16:02:18 58° 243° (WSW) 16:13:19 29.354- 29.394
MOZHAYETS 4 23 Sep 15:51:13 15:54:33 19° 90° (E) 15:57:51
UKube-1 23 Sep 16:07:17 16:11:29 52° 291° (WNW) 16:15:40 .
DX 1 23 Sep 16:14:14 16:18:06 32° 295° (WNW) 16:21:58 434.975-435.025
ITUPSAT 1 23 Sep 16:18:46 16:23:05 32° 95° (E) 16:27:22 437.325
ITAMSAT 1 23 Sep 16:25:38 16:30:45 64° 257° (WSW) 16:35:56 435.822/435.867
CUTE-I 23 Sep 16:38:17 16:39:35 11° 46° (NE) 16:40:52 437.470
DOVE 4 23 Sep 16:40:36 16:43:50 21° 62° (ENE) 16:47:01 437.250
AO-7 23 Sep 16:40:46 16:48:49 51° 259° (WSW) 16:56:54 .
BEESAT 23 Sep 16:55:16 17:00:04 66° 103° (ESE) 17:04:50 436.000
LilacSat-2 23 Sep 17:04:00 17:05:12 11° 56° (ENE) 17:06:24 437.200
NO-84 23 Sep 17:05:07 17:08:27 41° 353° (N) 17:11:30 435.350 FM
YUBILEINY 23 Sep 17:20:37 17:21:23 10° 327° (NNW) 17:22:08 435.215
KAITUO 1B 23 Sep 17:22:09 17:23:38 12° 58° (ENE) 17:25:08 145.475/437.950
MOZHAYETS 4 23 Sep 17:27:30 17:32:07 62° 289° (WNW) 17:36:42
SO-50 23 Sep 17:29:31 17:33:18 26° 331° (NNW) 17:37:07 436.795
PCSat 23 Sep 17:32:21 17:37:23 38° 320° (NW) 17:42:29 145.827
KKS-1 23 Sep 17:48:21 17:51:46 21° 92° (E) 17:55:10 437.445
XW-2D 23 Sep 17:49:37 17:52:55 28° 66° (ENE) 17:56:13 145.860 - 145.880
CUBESAT XI-V 23 Sep 17:53:35 17:58:13 61° 101° (E) 18:02:46 437.345
ITUPSAT 1 23 Sep 17:56:29 18:01:00 40° 294° (WNW) 18:05:28 437.325
XW-2B 23 Sep 18:01:42 18:05:13 34° 68° (ENE) 18:08:45 145.730 - 145.750
XW-2F 23 Sep 18:01:46 18:05:14 33° 68° (ENE) 18:08:43 145.980 - 146.000
HO-68 23 Sep 18:04:26 18:10:23 30° 52° (NE) 18:16:22 435.675
RS-15 23 Sep 18:06:01 18:11:46 15° 268° (W) 18:17:24 29.354- 29.394
STARS 23 Sep 18:13:09 18:16:01 17° 90° (E) 18:18:51 437.465
CUTE-I 23 Sep 18:13:22 18:18:27 49° 67° (ENE) 18:23:34 437.470
DOVE 4 23 Sep 18:17:02 18:21:18 51° 260° (W) 18:25:25 437.250
XW-2C 23 Sep 18:22:44 18:26:30 58° 72° (ENE) 18:30:20 145.795 - 145.815
NUDT-PHONESAT 23 Sep 18:24:56 18:28:31 44° 70° (ENE) 18:32:09 437.300
SEEDS 23 Sep 18:31:10 18:33:20 14° 57° (ENE) 18:35:30 437.485
BEESAT 23 Sep 18:33:50 18:37:24 21° 302° (WNW) 18:40:58 436.000
LilacSat-2 23 Sep 18:34:55 18:38:48 84° 79° (ENE) 18:42:44 437.200
AO-7 23 Sep 18:41:56 18:43:44 11° 281° (W) 18:45:32 .
NO-84 23 Sep 18:43:00 18:46:13 49° 14° (NNE) 18:49:11 435.350 FM
KAITUO 1B 23 Sep 18:53:14 18:57:02 86° 253° (WSW) 19:00:52 145.475/437.950
AAUSAT CUBESAT 2 23 Sep 18:54:44 18:56:05 11° 55° (NE) 18:57:25 437.432
CUTE 1.7 + AOD 2 23 Sep 18:57:10 19:01:01 33° 66° (ENE) 19:04:52 437.475
MOZHAYETS 4 23 Sep 19:06:58 19:08:22 11° 309° (NW) 19:09:47
SO-50 23 Sep 19:12:39 19:15:15 15° 356° (N) 19:17:51 436.795
PCSat 23 Sep 19:18:53 19:22:21 17° 345° (NNW) 19:25:48 145.827
XW-2D 23 Sep 19:23:34 19:27:02 31° 264° (W) 19:30:30 145.860 - 145.880
KKS-1 23 Sep 19:24:18 19:28:37 52° 291° (WNW) 19:32:56 437.445
CUBEBUG 2 23 Sep 19:26:31 19:30:28 37° 67° (ENE) 19:34:34 437.445
CUBESAT XI-V 23 Sep 19:31:43 19:35:11 21° 301° (WNW) 19:38:38 437.345
UWE-3 23 Sep 19:33:37 19:37:21 28° 64° (ENE) 19:41:11 435.000/436.395/437.385
XW-2F 23 Sep 19:36:11 19:39:24 25° 266° (W) 19:42:38 145.980 - 146.000
XW-2B 23 Sep 19:36:17 19:39:29 24° 267° (W) 19:42:40 145.730 - 145.750
STARS 23 Sep 19:48:25 19:52:48 66° 288° (WNW) 19:57:09 437.465
HO-68 23 Sep 19:50:22 19:57:31 78° 254° (WSW) 20:04:44 435.675
CUTE-I 23 Sep 19:54:08 19:58:44 29° 266° (W) 20:03:22 437.470
XW-2C 23 Sep 19:58:47 20:01:04 15° 271° (W) 20:03:21 145.795 - 145.815
NUDT-PHONESAT 23 Sep 19:59:57 20:02:37 18° 269° (W) 20:05:18 437.300
SEEDS 23 Sep 20:04:09 20:08:24 88° 261° (W) 20:12:41 437.485
XW-2A 23 Sep 20:11:43 20:15:08 83° 75° (ENE) 20:18:36 145.665 - 145.685
LilacSat-2 23 Sep 20:12:39 20:13:39 11° 274° (W) 20:14:39 437.200
Oscar 11 23 Sep 20:17:11 20:20:55 28° 64° (ENE) 20:24:40 .
AO-73 23 Sep 20:17:47 20:21:49 38° 67° (ENE) 20:25:59 145.935
ZACube-1 23 Sep 20:20:33 20:24:42 44° 69° (ENE) 20:28:58 437.345
NO-84 23 Sep 20:20:35 20:23:33 41° 216° (SW) 20:26:20 435.350 FM
AAUSAT CUBESAT 2 23 Sep 20:26:39 20:30:48 76° 74° (ENE) 20:34:59 437.432
CUTE 1.7 + AOD 2 23 Sep 20:33:00 20:36:50 31° 265° (W) 20:40:42 437.475
Tancredo 1 23 Sep 20:42:05 20:44:11 21° 147° (SSE) 20:46:18 437.200
BEESAT 3 23 Sep 20:45:54 20:49:43 43° 123° (ESE) 20:53:34 437.485
SO-50 23 Sep 20:53:59 20:57:21 20° 21° (NNE) 21:00:44 436.795
BEESAT 2 23 Sep 20:54:32 20:57:29 20° 115° (ESE) 21:00:28 435.950
STRAND 1 23 Sep 21:02:02 21:07:10 63° 102° (ESE) 21:12:17 437.568
CUBEBUG 2 23 Sep 21:03:29 21:07:11 28° 267° (W) 21:11:02 437.445
FO-29 23 Sep 21:03:41 21:05:12 11° 84° (E) 21:06:46 435.910
PCSat 23 Sep 21:04:43 21:07:58 16° 11° (NNE) 21:11:13 145.827
UWE-3 23 Sep 21:09:36 21:13:40 39° 264° (W) 21:17:53 435.000/436.395/437.385
ISS 23 Sep 21:12:18 21:13:03 11° 136° (SE) 21:13:49 437.550
AO-85 23 Sep 21:14:28 21:17:51 29° 119° (ESE) 21:21:19 145.980
Max Valier Satellite 23 Sep 21:22:38 21:25:32 22° 64° (ENE) 21:28:30 145.860
YUBILEINY 23 Sep 21:23:21 21:27:12 13° 40° (NE) 21:31:02 435.215
STARS 23 Sep 21:27:00 21:28:19 11° 308° (NW) 21:29:38 437.465
HO-68 23 Sep 21:41:55 21:46:27 18° 275° (W) 21:51:01 435.675
SEEDS 23 Sep 21:43:28 21:44:45 11° 274° (W) 21:46:02 437.485
nSIGHT-1 23 Sep 21:49:23 21:51:54 21° 144° (SE) 21:54:26 .
Oscar 11 23 Sep 21:52:52 21:56:56 38° 263° (W) 22:01:03 .
DELFI C3 23 Sep 21:54:03 21:57:57 61° 73° (ENE) 22:01:51 145.870
AO-73 23 Sep 21:54:20 21:58:08 29° 266° (W) 22:02:02 145.935
ZACube-1 23 Sep 21:57:35 22:01:11 25° 268° (W) 22:04:52 437.345
AAUSAT CUBESAT 2 23 Sep 22:04:45 22:06:47 13° 273° (W) 22:08:50 437.432
TIGRISAT 23 Sep 22:09:42 22:11:45 13° 86° (E) 22:13:48 435.000
Tancredo 1 23 Sep 22:15:42 22:18:23 80° 169° (S) 22:21:06 437.200
EO-88 23 Sep 22:22:03 22:25:42 71° 73° (ENE) 22:29:23 145.990 - 145.960
BEESAT 3 23 Sep 22:23:42 22:27:23 33° 323° (NW) 22:31:06 437.485
ESTCUBE 1 23 Sep 22:27:59 22:30:35 15° 56° (NE) 22:33:11 437.505/2401.250
BEESAT 2 23 Sep 22:30:50 22:34:51 63° 315° (NW) 22:38:54 435.950
SO-50 23 Sep 22:34:11 22:38:42 58° 43° (NE) 22:43:16 436.795
PRISM 23 Sep 22:41:05 22:42:38 12° 88° (E) 22:44:12 437.425
STRAND 1 23 Sep 22:41:54 22:45:58 24° 302° (WNW) 22:50:02 437.568
ISS 23 Sep 22:45:44 22:48:53 44° 154° (SSE) 22:52:03 437.550
FO-29 23 Sep 22:45:53 22:51:16 68° 103° (ESE) 22:57:11 435.910
PCSat 23 Sep 22:48:11 22:53:05 32° 37° (NE) 22:57:56 145.827
AO-85 23 Sep 22:54:23 22:58:07 41° 320° (NW) 23:01:58 145.980
Max Valier Satellite 23 Sep 22:55:43 22:59:12 37° 263° (W) 23:02:43 145.860
LO-87 23 Sep 23:17:54 23:21:16 43° 71° (ENE) 23:24:40 145.935 - 145.965
YUBILEINY 23 Sep 23:18:37 23:26:56 45° 68° (ENE) 23:35:14 435.215
UNISAT 6 23 Sep 23:20:49 23:25:25 57° 101° (E) 23:30:03 437.425
nSIGHT-1 23 Sep 23:24:38 23:27:52 73° 162° (SSE) 23:31:07 .
DELFI C3 23 Sep 23:30:48 23:33:07 15° 271° (W) 23:35:25 145.870
TIGRISAT 23 Sep 23:44:25 23:49:07 86° 107° (ESE) 23:53:50 435.000
Tancredo 1 23 Sep 23:50:14 23:52:56 76° 4° (N) 23:55:38 437.200
EO-88 23 Sep 23:58:31 23:59:49 11° 272° (W) 00:01:08 145.990 - 145.960
ESTCUBE 1 24 Sep 00:02:12 00:06:45 89° 243° (WSW) 00:11:20 437.505/2401.250
BEESAT 3 24 Sep 00:04:02 00:06:05 13° 346° (NNW) 00:08:09 437.485
POLYITAN 1 24 Sep 00:08:52 00:09:54 11° 85° (E) 00:10:56 437.675
BEESAT 2 24 Sep 00:10:31 00:13:21 18° 336° (NNW) 00:16:13 435.950
EO-79 24 Sep 00:12:35 00:14:10 12° 86° (E) 00:15:45 145.935-145.965
PRISM 24 Sep 00:14:24 00:18:29 81° 286° (WNW) 00:22:32 437.425
SO-50 24 Sep 00:15:05 00:18:54 26° 243° (WSW) 00:22:44 436.795
ISS 24 Sep 00:21:59 00:25:17 80° 354° (N) 00:28:35 437.550
QB50P2 24 Sep 00:25:16 00:28:08 17° 90° (E) 00:31:01 145.880/145.840
SPROUT 24 Sep 00:27:20 00:31:23 46° 69° (ENE) 00:35:29 437.525
AIST 2D 24 Sep 00:29:56 00:33:16 37° 97° (E) 00:36:32 435.315
VELOX 1 24 Sep 00:30:19 00:34:26 40° 67° (ENE) 00:38:32 145.980
PCSat 24 Sep 00:31:29 00:36:53 66° 238° (WSW) 00:42:15 145.827
FO-29 24 Sep 00:31:51 00:36:03 24° 301° (WNW) 00:40:30 435.910
AO-85 24 Sep 00:37:12 00:39:33 15° 344° (NNW) 00:41:58 145.980
50 SAT 24 Sep 00:40:32 00:42:27 15° 61° (ENE) 00:44:22 437.505
LO-87 24 Sep 00:52:36 00:54:55 16° 269° (W) 00:57:16 145.935 - 145.965
UNISAT 6 24 Sep 00:58:10 01:01:47 23° 299° (WNW) 01:05:27 437.425
NANOSAT C BR1 24 Sep 00:59:48 01:03:34 30° 95° (E) 01:07:19 145.865
nSIGHT-1 24 Sep 01:00:59 01:04:15 77° 3° (N) 01:07:30 .
YUBILEINY 24 Sep 01:15:36 01:23:56 52° 271° (W) 01:32:18 435.215
TIGRISAT 24 Sep 01:22:19 01:25:12 16° 303° (WNW) 01:28:06 435.000
Tancredo 1 24 Sep 01:24:47 01:27:21 41° 204° (SSW) 01:29:56 437.200
DUCHIFAT 1 24 Sep 01:27:50 01:32:00 49° 100° (E) 01:36:08 145.980
UKube-1 24 Sep 01:30:45 01:34:34 32° 65° (ENE) 01:38:25 .
DX 1 24 Sep 01:37:55 01:42:09 54° 70° (ENE) 01:46:24 434.975-435.025
POLYITAN 1 24 Sep 01:42:03 01:46:22 84° 102° (ESE) 01:50:41 437.675
ESTCUBE 1 24 Sep 01:42:17 01:44:14 13° 274° (W) 01:46:11 437.505/2401.250
BEESAT 3 24 Sep 01:43:33 01:45:17 12° 10° (N) 01:47:02 437.485
EO-79 24 Sep 01:46:15 01:50:34 89° 301° (WNW) 01:54:51 145.935-145.965
Oscar 19 24 Sep 01:49:34 01:52:34 15° 87° (E) 01:55:32 437.125/150
M-CUBED/EXP-1 PRIME 24 Sep 01:50:49 01:53:13 18° 99° (E) 01:55:33 437.505
BEESAT 2 24 Sep 01:51:10 01:52:38 12° 0° (N) 01:54:07 435.950
PRISM 24 Sep 01:51:35 01:53:05 12° 305° (NW) 01:54:35 437.425
ITUPSAT 1 24 Sep 01:55:58 01:57:51 12° 51° (NE) 01:59:44 437.325
ISS 24 Sep 01:58:31 02:01:50 84° 194° (SSW) 02:05:08 437.550
QB50P2 24 Sep 02:00:05 02:04:20 61° 288° (WNW) 02:08:33 145.880/145.840
BUGSAT 1 24 Sep 02:01:54 02:05:42 32° 96° (E) 02:09:32 437.445
AIST 2D 24 Sep 02:03:35 02:06:15 20° 296° (WNW) 02:08:53 435.315
SPROUT 24 Sep 02:04:13 02:07:31 22° 268° (W) 02:10:51 437.525
VELOX 1 24 Sep 02:07:15 02:11:00 27° 266° (W) 02:14:45 145.980
50 SAT 24 Sep 02:11:23 02:14:36 48° 260° (W) 02:17:50 437.505
PCSat 24 Sep 02:17:15 02:19:16 12° 258° (WSW) 02:21:17 145.827
AO-85 24 Sep 02:19:38 02:21:38 13° 9° (N) 02:23:42 145.980
O/OREOS (USA 219) 24 Sep 02:26:34 02:29:38 18° 101° (E) 02:32:43 437.305
BEESAT 24 Sep 02:30:12 02:33:50 22° 58° (ENE) 02:37:29 436.000
NANOSAT C BR1 24 Sep 02:35:26 02:39:18 35° 294° (WNW) 02:43:11 145.865
nSIGHT-1 24 Sep 02:37:21 02:40:33 54° 203° (SSW) 02:43:44 .
MOZHAYETS 4 24 Sep 02:57:28 03:01:34 33° 65° (ENE) 03:05:43
DUCHIFAT 1 24 Sep 03:04:04 03:07:23 22° 298° (WNW) 03:10:42 145.980
UKube-1 24 Sep 03:06:42 03:10:34 32° 263° (W) 03:14:29 .
DX 1 24 Sep 03:15:30 03:18:40 20° 268° (W) 03:21:51 434.975-435.025
Gurwin Techsat 1B 24 Sep 03:15:36 03:20:49 53° 100° (E) 03:26:01 435.225
YUBILEINY 24 Sep 03:15:52 03:18:32 12° 294° (WNW) 03:21:13 435.215
POLYITAN 1 24 Sep 03:19:09 03:21:35 15° 303° (WNW) 03:24:01 437.675
BEESAT 3 24 Sep 03:20:41 03:24:08 27° 33° (NNE) 03:27:34 437.485
EO-79 24 Sep 03:23:32 03:25:42 14° 304° (NW) 03:27:51 145.935-145.965
M-CUBED/EXP-1 PRIME 24 Sep 03:24:43 03:27:51 35° 298° (WNW) 03:30:52 437.505
CUBESAT XI-V 24 Sep 03:26:12 03:29:17 18° 57° (ENE) 03:32:21 437.345
Oscar 19 24 Sep 03:27:25 03:32:38 89° 272° (W) 03:37:47 437.125/150
BEESAT 2 24 Sep 03:29:02 03:31:55 18° 24° (NNE) 03:34:47 435.950
ITUPSAT 1 24 Sep 03:30:03 03:34:46 64° 71° (ENE) 03:39:32 437.325
ISS 24 Sep 03:35:12 03:38:03 27° 213° (SSW) 03:40:53 437.550
BUGSAT 1 24 Sep 03:37:19 03:41:02 31° 295° (WNW) 03:44:46 437.445
AO-85 24 Sep 03:59:41 04:03:22 27° 33° (NNE) 04:07:15 145.980
O/OREOS (USA 219) 24 Sep 04:04:03 04:08:32 66° 300° (WNW) 04:13:07 437.305
BEESAT 24 Sep 04:06:30 04:11:13 62° 258° (WSW) 04:15:59 436.000
RS-15 24 Sep 04:13:08 04:20:00 17° 93° (E) 04:26:51 29.354- 29.394
nSIGHT-1 24 Sep 04:14:35 04:16:21 14° 221° (SW) 04:18:08 .
ITAMSAT 1 24 Sep 04:33:25 04:38:02 31° 95° (E) 04:42:36 435.822/435.867
MOZHAYETS 4 24 Sep 04:34:24 04:38:41 37° 264° (W) 04:43:01
AO-7 24 Sep 04:36:09 04:43:58 42° 98° (E) 04:51:41 .
KKS-1 24 Sep 04:50:48 04:54:51 36° 65° (ENE) 04:58:55 437.445
Gurwin Techsat 1B 24 Sep 04:56:00 05:00:31 29° 300° (WNW) 05:05:01 435.225
BEESAT 3 24 Sep 04:58:02 05:02:00 60° 234° (SW) 05:05:53 437.485
CUBESAT XI-V 24 Sep 05:01:22 05:06:05 79° 255° (WSW) 05:10:49 437.345
BEESAT 2 24 Sep 05:06:20 05:10:24 65° 46° (NE) 05:14:25 435.950
Oscar 19 24 Sep 05:07:53 05:11:16 18° 306° (NW) 05:14:37 437.125/150
ITUPSAT 1 24 Sep 05:09:36 05:13:03 19° 270° (W) 05:16:31 437.325
STARS 24 Sep 05:14:04 05:17:47 28° 63° (ENE) 05:21:30 437.465
AO-85 24 Sep 05:39:47 05:44:06 68° 233° (SW) 05:48:46 145.980
O/OREOS (USA 219) 24 Sep 05:46:21 05:48:54 15° 323° (NW) 05:51:27 437.305
DOVE 4 24 Sep 06:10:14 06:13:48 26° 94° (E) 06:17:29 437.250
ITAMSAT 1 24 Sep 06:12:42 06:17:39 46° 294° (WNW) 06:22:37 435.822/435.867
RS-15 24 Sep 06:17:49 06:29:45 61° 118° (ESE) 06:41:39 29.354- 29.394
CUTE-I 24 Sep 06:26:49 06:29:10 13° 85° (E) 06:31:30 437.470
KKS-1 24 Sep 06:27:34 06:31:27 30° 264° (W) 06:35:23 437.445
AO-7 24 Sep 06:28:57 06:37:01 58° 300° (WNW) 06:45:04 .
CUBESAT XI-V 24 Sep 06:42:40 06:44:14 11° 275° (W) 06:45:49 437.345
BEESAT 2 24 Sep 06:44:50 06:47:45 19° 245° (WSW) 06:50:38 435.950
STRAND 1 24 Sep 06:45:06 06:49:16 26° 59° (ENE) 06:53:27 437.568
STARS 24 Sep 06:49:54 06:53:59 39° 262° (W) 06:58:07 437.465
XW-2D 24 Sep 06:51:06 06:53:57 20° 92° (E) 06:56:47 145.860 - 145.880
XW-2F 24 Sep 07:02:47 07:05:55 24° 93° (E) 07:09:00 145.980 - 146.000
XW-2B 24 Sep 07:03:13 07:06:26 25° 94° (E) 07:09:37 145.730 - 145.750
HO-68 24 Sep 07:13:55 07:18:13 16° 84° (E) 07:22:28 435.675
AO-85 24 Sep 07:22:28 07:23:50 11° 250° (WSW) 07:25:13 145.980
NUDT-PHONESAT 24 Sep 07:23:54 07:27:15 30° 95° (E) 07:30:34 437.300
XW-2C 24 Sep 07:24:19 07:27:59 42° 98° (E) 07:31:36 145.795 - 145.815
LilacSat-2 24 Sep 07:37:17 07:41:07 62° 101° (ESE) 07:44:54 437.200
SEEDS 24 Sep 07:44:56 07:46:15 11° 86° (E) 07:47:33 437.485
DOVE 4 24 Sep 07:47:44 07:51:38 38° 292° (WNW) 07:55:39 437.250
KAITUO 1B 24 Sep 07:53:11 07:56:56 66° 101° (ESE) 08:00:38 145.475/437.950
ITAMSAT 1 24 Sep 07:55:44 07:55:56 10° 315° (NW) 07:56:09 435.822/435.867
CUTE-I 24 Sep 08:04:46 08:10:08 76° 104° (ESE) 08:15:28 437.470
CUTE 1.7 + AOD 2 24 Sep 08:12:19 08:16:08 31° 95° (E) 08:19:54 437.475
AO-7 24 Sep 08:22:40 08:28:13 20° 324° (NW) 08:33:44 .
STRAND 1 24 Sep 08:23:08 08:28:09 57° 259° (W) 08:33:12 437.568
XW-2D 24 Sep 08:24:42 08:28:20 42° 290° (WNW) 08:31:55 145.860 - 145.880
RS-15 24 Sep 08:30:14 08:42:30 63° 325° (NW) 08:54:37 29.354- 29.394
XW-2F 24 Sep 08:36:38 08:40:06 34° 292° (WNW) 08:43:33 145.980 - 146.000
XW-2B 24 Sep 08:37:13 08:40:40 33° 293° (WNW) 08:44:06 145.730 - 145.750
CUBEBUG 2 24 Sep 08:47:55 08:52:26 44° 98° (E) 08:56:58 437.445
UNISAT 6 24 Sep 08:50:19 08:52:38 14° 55° (NE) 08:54:59 437.425
UWE-3 24 Sep 08:53:35 08:57:46 32° 94° (E) 09:01:57 435.000/436.395/437.385
NUDT-PHONESAT 24 Sep 08:57:53 09:01:03 26° 294° (WNW) 09:04:12 437.300
XW-2C 24 Sep 08:59:02 09:01:56 21° 297° (WNW) 09:04:49 145.795 - 145.815
HO-68 24 Sep 08:59:59 09:07:13 73° 105° (ESE) 09:14:24 435.675
XW-2A 24 Sep 09:01:03 09:04:21 41° 99° (E) 09:07:36 145.665 - 145.685
FO-29 24 Sep 09:03:52 09:09:09 50° 68° (ENE) 09:14:11 435.910
LilacSat-2 24 Sep 09:12:37 09:14:57 16° 300° (WNW) 09:17:17 437.200
TIGRISAT 24 Sep 09:12:44 09:15:55 20° 59° (ENE) 09:19:09 435.000
SEEDS 24 Sep 09:18:21 09:22:35 89° 268° (W) 09:26:45 437.485
KAITUO 1B 24 Sep 09:28:23 09:30:27 14° 301° (WNW) 09:32:31 145.475/437.950
PRISM 24 Sep 09:34:23 09:37:13 18° 60° (ENE) 09:40:03 437.425
Oscar 11 24 Sep 09:34:49 09:38:36 28° 94° (E) 09:42:19 .
AO-73 24 Sep 09:36:16 09:40:37 41° 97° (E) 09:44:55 145.935
AAUSAT CUBESAT 2 24 Sep 09:38:53 09:43:01 71° 103° (ESE) 09:47:06 437.432
ZACube-1 24 Sep 09:39:29 09:43:58 48° 98° (E) 09:48:24 437.345
CUTE-I 24 Sep 09:45:41 09:49:39 22° 304° (NW) 09:53:37 437.470
CUTE 1.7 + AOD 2 24 Sep 09:48:10 09:51:57 32° 294° (WNW) 09:55:42 437.475
Max Valier Satellite 24 Sep 10:21:18 10:23:30 15° 89° (E) 10:25:41 145.860
UNISAT 6 24 Sep 10:24:16 10:28:39 87° 75° (ENE) 10:33:10 437.425
CUBEBUG 2 24 Sep 10:24:52 10:28:52 29° 296° (WNW) 10:32:54 437.445
UWE-3 24 Sep 10:29:58 10:34:16 38° 293° (WNW) 10:38:35 435.000/436.395/437.385
XW-2A 24 Sep 10:34:26 10:36:47 17° 297° (WNW) 10:39:08 145.665 - 145.685
RS-15 24 Sep 10:46:12 10:57:47 43° 357° (N) 11:09:00 29.354- 29.394
TIGRISAT 24 Sep 10:47:51 10:52:10 62° 259° (WSW) 10:56:39 435.000
HO-68 24 Sep 10:48:19 10:54:26 31° 306° (NW) 11:00:33 435.675
FO-29 24 Sep 10:49:55 10:54:34 27° 266° (W) 10:59:02 435.910
O/OREOS (USA 219) 24 Sep 10:51:11 10:54:16 17° 41° (NE) 10:57:21 437.305
DUCHIFAT 1 24 Sep 10:52:21 10:53:16 11° 53° (NE) 10:54:12 145.980
SEEDS 24 Sep 10:55:38 10:57:37 13° 304° (WNW) 10:59:36 437.485
DELFI C3 24 Sep 11:00:26 11:04:15 49° 100° (E) 11:08:03 145.870
POLYITAN 1 24 Sep 11:05:15 11:07:59 17° 58° (ENE) 11:10:42 437.675
PRISM 24 Sep 11:08:05 11:12:08 58° 259° (WSW) 11:16:11 437.425
AIST 2D 24 Sep 11:08:45 11:11:54 30° 68° (ENE) 11:15:03 435.315
M-CUBED/EXP-1 PRIME 24 Sep 11:09:02 11:10:07 11° 50° (NE) 11:11:12 437.505
EO-79 24 Sep 11:09:08 11:11:59 18° 59° (ENE) 11:14:52 145.935-145.965
Oscar 11 24 Sep 11:10:48 11:14:50 37° 293° (WNW) 11:18:49 .
AO-73 24 Sep 11:12:45 11:16:42 29° 296° (WNW) 11:20:39 145.935
AAUSAT CUBESAT 2 24 Sep 11:15:30 11:17:59 16° 301° (WNW) 11:20:27 437.432
ZACube-1 24 Sep 11:16:13 11:20:00 26° 298° (WNW) 11:23:45 437.345
EO-88 24 Sep 11:19:14 11:22:47 45° 99° (E) 11:26:18 145.990 - 145.960
QB50P2 24 Sep 11:22:19 11:25:46 25° 63° (ENE) 11:29:15 145.880/145.840
